Apalachicola, FL

1:55 AM EDT on October 22, 2017 (GMT -0400)
Apalachicola Municipal

Weather History for KAAF - January, 2014

Change the Weather History Date:

Friday, January 10, 2014

  Actual Average Record
Temperature  
Mean Temperature 64 °F 52 °F  
Max Temperature 67 °F 63 °F 76 °F (1957)
Min Temperature 60 °F 41 °F 23 °F (2010)
Degree Days  
Heating Degree Days 1    
Month to date heating degree days 153  
Since 1 July heating degree days 454  
Cooling Degree Days 0    
Month to date cooling degree days 0  
Year to date cooling degree days 0  
Growing Degree Days 13 (Base 50)    
Moisture  
Dew Point 61 °F    
Average Humidity 90    
Maximum Humidity 93    
Minimum Humidity 87    
Precipitation  
Precipitation 0.02 in 0.13 in 2.40 in (1991)
Month to date precipitation 1.26 1.28  
Year to date precipitation 1.26 1.28  
Sea Level Pressure  
Sea Level Pressure 30.11 in    
Wind  
Wind Speed 6 mph (East)    
Max Wind Speed 13 mph    
Max Gust Speed 17 mph    
Visibility 1 miles    
Events Fog , Rain    
T = Trace of Precipitation, MM = Missing Value Source: NWS Daily Summary

Daily Weather History Graph

Daily Weather History Graph

Search for Another Location

Airport or City:

Trip Planner

Search our weather history database for the weather conditions in past years. The results will help you decide how hot, cold, wet, or windy it might be!

Date:

Astronomy

Jan. 10, 2014 Rise Set
Actual Time 7:36 AM EST 5:59 PM EST
Civil Twilight 7:10 AM EST 6:25 PM EST
Nautical Twilight 6:41 AM EST 6:54 PM EST
Astronomical Twilight 6:12 AM EST 7:23 PM EST
Moon 1:56 PM EST (1/10) 2:50 AM EST (1/10)
Length of Visible Light 11h 14m
Length of Day
10h 22m
Waxing Gibbous, 75% of the Moon is Illuminated
Jan 10
Waxing Gibbous
Jan 15
Full
Jan 24
Last Quarter
Jan 30
New
Feb 6
First Quarter

Hourly Weather History & Observations

Time (EST) Temp. Dew Point Humidity Pressure Visibility Wind Dir Wind Speed Gust Speed Precip Events Conditions
12:42 AM 60.8 °F 57.2 °F 88% 30.23 in 3.0 mi ENE 3.5 mph - 0.01 in   Overcast
12:53 AM 60.1 °F 57.0 °F 90% 30.22 in 2.5 mi NE 4.6 mph - 0.02 in   Overcast
1:37 AM 60.8 °F 57.2 °F 88% 30.20 in 1.5 mi ENE 5.8 mph - N/A   Overcast
1:53 AM 60.1 °F 57.0 °F 90% 30.19 in 1.2 mi ENE 4.6 mph - N/A   Overcast
2:38 AM 60.8 °F 57.2 °F 88% 30.18 in 0.8 mi ENE 4.6 mph - N/A   Mist
2:53 AM 60.1 °F 57.0 °F 90% 30.18 in 0.8 mi ENE 4.6 mph - N/A   Mist
3:09 AM 60.8 °F 57.2 °F 88% 30.17 in 1.2 mi ENE 4.6 mph - 0.00 in Rain Light Rain
3:53 AM 60.1 °F 57.9 °F 93% 30.17 in 1.2 mi NE 3.5 mph - 0.00 in   Overcast
4:29 AM 60.8 °F 57.2 °F 88% 30.16 in 0.8 mi NNE 3.5 mph - N/A   Mist
4:53 AM 60.1 °F 57.0 °F 90% 30.16 in 0.8 mi NNE 4.6 mph - N/A   Mist
5:53 AM 60.1 °F 57.0 °F 90% 30.15 in 0.5 mi ENE 5.8 mph - N/A Fog Fog
6:53 AM 62.1 °F 59.0 °F 90% 30.16 in 0.5 mi East 5.8 mph - N/A Fog Fog
7:53 AM 62.1 °F 59.0 °F 90% 30.15 in 0.2 mi East 8.1 mph - N/A Fog Fog
8:53 AM 63.0 °F 60.1 °F 90% 30.17 in 0.2 mi East 6.9 mph - N/A Fog Fog
9:53 AM 63.0 °F 60.1 °F 90% 30.17 in 0.2 mi East 8.1 mph - N/A Fog Fog
10:53 AM 64.0 °F 61.0 °F 90% 30.17 in 0.2 mi East 5.8 mph - N/A Fog Fog
11:25 AM 64.4 °F 60.8 °F 88% 30.15 in 0.5 mi East 8.1 mph - N/A Fog Fog
11:39 AM 64.4 °F 60.8 °F 88% 30.14 in 0.2 mi East 6.9 mph - N/A Fog Fog
11:53 AM 64.0 °F 62.1 °F 93% 30.14 in 0.2 mi ESE 5.8 mph - N/A Fog Fog
12:01 PM 64.4 °F 62.6 °F 94% 30.13 in 0.5 mi East 5.8 mph - N/A Fog Fog
12:53 PM 66.0 °F 63.0 °F 90% 30.10 in 1.0 mi East 4.6 mph - N/A   Mist
1:01 PM 64.4 °F 62.6 °F 94% 30.09 in 0.5 mi East 4.6 mph - N/A Fog Fog
1:15 PM 66.2 °F 62.6 °F 88% 30.08 in 1.0 mi ESE 4.6 mph - N/A   Overcast
1:27 PM 66.2 °F 62.6 °F 88% 30.07 in 0.8 mi ENE 4.6 mph - N/A   Overcast
1:53 PM 66.9 °F 64.0 °F 90% 30.07 in 1.0 mi ESE 3.5 mph - N/A   Overcast
2:02 PM 66.2 °F 64.4 °F 94% 30.07 in 0.5 mi ESE 6.9 mph - N/A Fog Fog
2:09 PM 66.2 °F 64.4 °F 94% 30.07 in 0.2 mi East 6.9 mph - N/A Fog Fog
2:31 PM 66.2 °F 64.4 °F 94% 30.06 in 0.5 mi SE 6.9 mph - N/A Fog Fog
2:53 PM 66.9 °F 64.0 °F 90% 30.06 in 0.5 mi ESE 5.8 mph - N/A Fog Fog
3:01 PM 66.2 °F 64.4 °F 94% 30.06 in 0.2 mi ESE 5.8 mph - N/A Fog Fog
3:53 PM 66.0 °F 63.0 °F 90% 30.05 in 0.2 mi East 4.6 mph - N/A Fog Fog
4:53 PM 64.9 °F 62.1 °F 90% 30.06 in 0.2 mi ESE 6.9 mph - N/A Fog Fog
5:53 PM 64.0 °F 62.1 °F 93% 30.06 in 0.2 mi East 4.6 mph - N/A Fog Fog
6:13 PM 64.4 °F 62.6 °F 94% 30.06 in 0.8 mi East 4.6 mph - N/A   Mist
6:36 PM 64.4 °F 62.6 °F 94% 30.05 in 1.0 mi East 4.6 mph - N/A   Mist
6:45 PM 64.4 °F 62.6 °F 94% 30.06 in 0.8 mi East 4.6 mph - N/A   Mist
6:53 PM 64.0 °F 62.1 °F 93% 30.06 in 0.8 mi East 3.5 mph - N/A   Mist
7:11 PM 64.4 °F 62.6 °F 94% 30.06 in 1.2 mi East 3.5 mph - N/A   Overcast
7:36 PM 64.4 °F 62.6 °F 94% 30.06 in 0.8 mi East 5.8 mph - N/A   Mist
7:53 PM 64.9 °F 62.1 °F 90% 30.06 in 0.5 mi Calm Calm - N/A Fog Fog
8:14 PM 64.4 °F 62.6 °F 94% 30.07 in 1.0 mi ESE 4.6 mph - N/A   Mist
8:21 PM 64.4 °F 62.6 °F 94% 30.06 in 0.5 mi ESE 6.9 mph - N/A Fog Fog
8:49 PM 64.4 °F 62.6 °F 94% 30.07 in 0.2 mi ESE 9.2 mph - N/A Fog Fog
8:53 PM 64.9 °F 62.1 °F 90% 30.06 in 0.2 mi ESE 9.2 mph - N/A Fog Fog
9:07 PM 64.4 °F 62.6 °F 94% 30.06 in 0.5 mi ESE 6.9 mph - N/A Fog Fog
9:53 PM 64.9 °F 62.1 °F 90% 30.05 in 0.8 mi ESE 8.1 mph - N/A   Mist
10:01 PM 64.4 °F 62.6 °F 94% 30.05 in 2.0 mi SE 8.1 mph - N/A   Overcast
10:10 PM 66.2 °F 62.6 °F 88% 30.05 in 5.0 mi SE 9.2 mph - N/A   Overcast
10:26 PM 66.2 °F 62.6 °F 88% 30.05 in 7.0 mi SE 11.5 mph - N/A   Overcast
10:53 PM 66.0 °F 64.0 °F 93% 30.05 in 10.0 mi SE 10.4 mph - N/A   Overcast
11:53 PM 66.0 °F 64.0 °F 93% 30.04 in 10.0 mi SSE 10.4 mph - N/A   Overcast